Lexington Weather

Lexington, Massachusetts, USA

30°F
3/6/2021 5:50pm 
  • Lexington Conditions: Overcast
  • Temperature: 30.4°F / -0.9°CColder 1.6°F than last hour.
  • Dew Point: 13.1°FIncreased 1.6°Fsince last hour.
  • Relative Humidity: 48%Increased 6.0% since last hour.
  • Wind: Wind from WSW WSW 1 mph, 10-min avg: 2 mph, gust: 8 mph
  • Barometer: 29.99 inRising 0.03  inHg/hr Rising Slowly
  • Visibility: 10 miles
  • Snow Today: 0.0 in
  •   

Regional Weather Roundup
for Boston / Norton, MA

        
000
ASUS41 KBOX 022304
RWRBOX

REGIONAL WEATHER ROUNDUP
NATIONAL WEATHER SERVICE BOSTON/NORTON MA
600 PM EST TUE MAR 02 2021

NOTE:  "FAIR" INDICATES FEW OR NO CLOUDS BELOW 12,000 FEET WITH NO 
SIGNIFICANT WEATHER AND/OR OBSTRUCTIONS TO VISIBILITY.

MAZALL-030000-
EASTERN MASSACHUSETTS
  
CITY           SKY/WX    TMP DP  RH WIND       PRES   REMARKS
BOSTON         PTCLDY    26  -6  24 W15G28    29.94R WCI  14          
BEVERLY        CLEAR     26  -6  24 NW14G21   29.91R WCI  14          
LAWRENCE       CLEAR     25  -4  28 W14G22    29.94R WCI  13          
BEDFORD        CLEAR     26  -3  28 W15G25    29.93R WCI  14          
BLUE HILL        N/A     23  -2  33 W17G28    29.89R WCI   9          
NORWOOD        CLEAR     28  -4  25 W8G24     29.96R WCI  20          
MARSHFIELD     CLEAR     28  -6  22 W9G20     29.94R WCI  20          
PLYMOUTH       CLEAR     26  -4  27 W15G21    29.94R WCI  14          
TAUNTON        CLEAR     28  -4  25 W9        29.97R WCI  19          
NEW BEDFORD    CLEAR     28  -4  25 W13G22    29.98R WCI  17          
$$

MAZALL-030000-
CAPE COD AND THE ISLANDS
  
CITY           SKY/WX    TMP DP  RH WIND       PRES   REMARKS
FALMOUTH       CLEAR     27  -8  22 W21G30    29.95R WCI  13          
HYANNIS        CLEAR     28  -4  25 W12G26    29.93R WCI  18          
CHATHAM        CLEAR     28  -2  27 W9G23     29.94R WCI  19          
PROVINCETOWN   CLEAR     29   7  39 W28G35    29.93R WCI  14          
NANTUCKET      CLEAR     28   9  44 W23G35    29.96R WCI  14          
MARTHAS VNYRD  CLEAR     28   1  31 W15G24    29.99R WCI  16          
$$
 
MAZALL-030000-
CENTRAL AND WESTERN MASSACHUSETTS
  
CITY           SKY/WX    TMP DP  RH WIND       PRES   REMARKS
WORCESTER      CLEAR     22  -4  32 W17G29    29.91R WCI   8          
FITCHBURG      CLEAR     25  -2  31 W17G32    29.95R WCI  12          
ORANGE         CLEAR     23  -3  32 W12G25    29.98R WCI  12          
SPRINGFIELD    CLEAR     24  -5  27 W16G24    30.02R WCI  10          
WESTFIELD      CLEAR     24  -1  33 W13       30.05R WCI  12          
NORTH ADAMS    CLEAR     21  -3  35 W20G30    30.03R WCI   6          
PITTSFIELD     CLEAR     18  -1  43 W20G26    30.01R WCI   2          
$$
 
RIZALL-030000-
RHODE ISLAND
  
CITY           SKY/WX    TMP DP  RH WIND       PRES   REMARKS
PROVIDENCE     PTCLDY    27  -3  27 W16G22    30.01R WCI  15          
NEWPORT        CLEAR     26  -1  31 W15G26    30.00R WCI  14          
BLOCK ISLAND   CLEAR     28   2  32 W17G32    30.06R WCI  16          
SMITHFIELD     CLEAR     24   0  35 W16G30    29.97R WCI  11          
WESTERLY       CLEAR     27  -4  26 VRB6G23   30.05R WCI  20          
$$
 
CTZALL-030000-
CONNECTICUT
  
CITY           SKY/WX    TMP DP  RH WIND       PRES   REMARKS
BRADLEY INTL   PTCLDY    25  -4  28 W14       30.06R WCI  13          
HARTFORD       CLEAR     29  -6  22 W17G24    30.09R WCI  17          
BRIDGEPORT     CLEAR     30   2  30 W15G25    30.11R WCI  19          
DANBURY        CLEAR     29   1  30 W13G20    30.11R WCI  19          
GROTON         CLEAR     29  -3  25 W16G31    30.06R WCI  17          
NEW HAVEN      CLEAR     32   5  32 W14G23    30.10R WCI  22          
CHESTER        FAIR      28  -6  22 W9G17     30.05R WCI  20          
MERIDEN        CLEAR     29  -3  25 NW10G25   30.09R WCI  20          
WILLIMANTIC    CLEAR     26  -3  28 W15G23    30.05R WCI  14          
OXFORD         CLEAR     26   1  34 W9G16     30.06R WCI  17          
$$

MEZ002-015-021-024-NHZ003-005-008-011-012-014-VTZ005-008-030000-
NORTHERN NEW ENGLAND
  
CITY           SKY/WX    TMP DP  RH WIND       PRES   REMARKS
PORTLAND ME    CLEAR     20  -5  33 NW17G26   29.81R WCI   5          
BANGOR ME      CLEAR     15  -7  37 NW20G30   29.68R WCI  -2          
CONCORD NH     CLEAR     22  -5  30 W22G33    29.90R WCI   6          
MANCHESTER NH  PTCLDY    25  -6  25 W13G21    29.90R WCI  14          
NASHUA NH      CLEAR     25  -4  28 NW21G31   29.92R WCI  11          
PORTSMOUTH NH  CLEAR     23 -10  22 W17G28    29.86R WCI   9          
JAFFREY NH     CLEAR     21  -6  30 VRB7      29.90R WCI  12          
KEENE NH       CLEAR     23  -2  33 NW12      29.96S WCI  12          
BURLINGTON VT  CLEAR     20  -6  31 W13G20    30.04R WCI   7          
MT. WASHINGTON PTCLDY   -13 -24  58 NW79G93     N/A  WCI -56          
$$

NYZ052-076-030000-
EASTERN NEW YORK
  
CITY           SKY/WX    TMP DP  RH WIND       PRES   REMARKS
ALBANY         PTCLDY    20   2  45 W18G28    30.13R WCI   5          
NEW YORK CITY  PTCLDY    33   2  26 NW17G25   30.15R WCI  22          
$$
 
ANZALL-030000-
MARINE OBSERVATIONS
  
STATION/POSITION TIME  TEMP    WIND        PRES    VSBY  WAVE
                       AIR SEA DIR/SP/G                  HT/PER
                 (UTC) (F)     (DEG/KT/KT) (MB)    (MI)  (FT/S)
BOSTON BUOY      NOT AVBL
BUZZARDS BAY     NOT AVBL
NANTUCKET SOUND  NOT AVBL
MASS BAY-STELLWA NOT AVBL
ISLE OF SHOALS   NOT AVBL
S OF BLOCK IS    NOT AVBL
$$

......................KEY.........................
  SKY/WX - SKY CONDITION/PRESENT WEATHER
  TMP    - TEMPERATURE IN FAHRENHEIT
  DWPT   - DEWPOINT IN FAHRENHEIT
  RH     - RELATIVE HUMIDITY IN PERCENT
  WIND   - DIRECTION AND SPEED IN MPH
  PRES   - MEAN SEA LEVEL PRESSURE IN INCHES OF HG
  WCI    - WIND CHILL INDEX
  VSB    - VISIBILITY IN MILES
  HX     - HEAT INDEX
  TC     - TEMPERATURE IN CELSIUS
  VRB    - VARIABLE WIND DIRECTION
  N/A    - NOT AVAILABLE
  
      

Other recent Regional Weather Roundups

Sat Mar 6, 5:04pm

Sat Mar 6, 4:05pm

Sat Mar 6, 3:04pm

Sat Mar 6, 2:04pm

Sat Mar 6, 1:05pm

Sat Mar 6, 12:04pm

Sat Mar 6, 11:04am

Sat Mar 6, 10:04am

Sat Mar 6, 9:04am

Sat Mar 6, 8:04am

Sat Mar 6, 7:04am

Sat Mar 6, 6:04am

Sat Mar 6, 5:04am

Sat Mar 6, 4:04am

Sat Mar 6, 3:04am

Sat Mar 6, 2:04am

Sat Mar 6, 1:04am

Sat Mar 6, 12:04am

Fri Mar 5, 11:04pm

Fri Mar 5, 10:04pm

Fri Mar 5, 9:04pm

Fri Mar 5, 8:04pm

Fri Mar 5, 7:04pm

Fri Mar 5, 6:04pm

Fri Mar 5, 5:04pm

Fri Mar 5, 4:05pm

Fri Mar 5, 3:04pm

Fri Mar 5, 2:04pm

Fri Mar 5, 1:04pm

Fri Mar 5, 12:04pm

Fri Mar 5, 11:04am

Fri Mar 5, 10:04am

Fri Mar 5, 9:04am

Fri Mar 5, 8:04am

Fri Mar 5, 7:04am

Fri Mar 5, 6:04am

Fri Mar 5, 5:04am

Fri Mar 5, 4:04am

Fri Mar 5, 3:04am

Fri Mar 5, 2:04am

Fri Mar 5, 1:04am

Fri Mar 5, 12:04am

Thu Mar 4, 11:04pm

Thu Mar 4, 10:04pm

Thu Mar 4, 9:04pm

Thu Mar 4, 8:04pm

Thu Mar 4, 7:04pm

Thu Mar 4, 6:04pm

Thu Mar 4, 5:04pm

Thu Mar 4, 4:04pm

Thu Mar 4, 3:04pm

Thu Mar 4, 2:04pm

Thu Mar 4, 1:04pm

Thu Mar 4, 12:04pm

Thu Mar 4, 11:04am

Thu Mar 4, 10:04am

Thu Mar 4, 9:04am

Thu Mar 4, 8:04am

Thu Mar 4, 7:04am

Thu Mar 4, 6:04am

Thu Mar 4, 5:04am

Thu Mar 4, 4:04am

Thu Mar 4, 3:04am

Thu Mar 4, 2:04am

Thu Mar 4, 1:04am

Thu Mar 4, 12:04am

Wed Mar 3, 11:04pm

Wed Mar 3, 10:04pm

Wed Mar 3, 9:04pm

Wed Mar 3, 8:04pm

Wed Mar 3, 7:04pm

Wed Mar 3, 6:04pm

Wed Mar 3, 5:04pm

Wed Mar 3, 4:04pm

Wed Mar 3, 3:04pm

Wed Mar 3, 2:04pm

Wed Mar 3, 1:04pm

Wed Mar 3, 12:04pm

Wed Mar 3, 11:04am

Wed Mar 3, 10:04am

Wed Mar 3, 9:04am

Wed Mar 3, 8:04am

Wed Mar 3, 7:04am

Wed Mar 3, 6:05am

Wed Mar 3, 5:04am

Wed Mar 3, 4:04am

Wed Mar 3, 3:04am

Wed Mar 3, 2:04am

Wed Mar 3, 1:04am

Wed Mar 3, 12:04am

Tue Mar 2, 11:04pm

Tue Mar 2, 10:05pm

Tue Mar 2, 9:04pm

Tue Mar 2, 8:04pm

Tue Mar 2, 7:04pm

Tue Mar 2, 5:04pm

Tue Mar 2, 4:05pm

Tue Mar 2, 3:04pm

Tue Mar 2, 2:04pm

Tue Mar 2, 1:04pm

Tue Mar 2, 12:04pm

Tue Mar 2, 11:04am

Tue Mar 2, 10:05am

Tue Mar 2, 9:04am

Tue Mar 2, 8:04am

Tue Mar 2, 7:04am

Tue Mar 2, 6:05am

Tue Mar 2, 5:04am

Tue Mar 2, 4:04am

Tue Mar 2, 3:04am

Tue Mar 2, 2:04am

Tue Mar 2, 1:04am

Tue Mar 2, 12:04am

Mon Mar 1, 11:04pm

Mon Mar 1, 10:04pm

Mon Mar 1, 9:04pm

Mon Mar 1, 8:04pm

Mon Mar 1, 7:04pm

Mon Mar 1, 6:04pm

Mon Mar 1, 5:04pm

Mon Mar 1, 4:05pm

Mon Mar 1, 3:05pm

Mon Mar 1, 2:04pm

Mon Mar 1, 1:04pm

Mon Mar 1, 12:04pm

Mon Mar 1, 11:04am

Mon Mar 1, 10:04am

Mon Mar 1, 9:04am

Mon Mar 1, 8:05am

Mon Mar 1, 7:04am

Mon Mar 1, 6:04am

Mon Mar 1, 5:04am

Mon Mar 1, 4:05am

Mon Mar 1, 3:04am

Mon Mar 1, 2:04am

Mon Mar 1, 1:04am

Mon Mar 1, 12:05am

Sun Feb 28, 11:04pm

Sun Feb 28, 10:04pm

Sun Feb 28, 9:04pm

Sun Feb 28, 8:04pm

Sun Feb 28, 7:04pm

Sun Feb 28, 6:05pm

Sun Feb 28, 5:04pm

Sun Feb 28, 4:05pm

Sun Feb 28, 3:04pm

Sun Feb 28, 2:04pm

Sun Feb 28, 1:04pm

Sun Feb 28, 12:04pm

Sun Feb 28, 11:04am

Sun Feb 28, 10:04am

Sun Feb 28, 9:04am

Sun Feb 28, 8:04am

Sun Feb 28, 7:04am

Sun Feb 28, 6:04am

Sun Feb 28, 5:04am

Sun Feb 28, 4:04am

Sun Feb 28, 3:04am

Sun Feb 28, 2:04am

Sun Feb 28, 1:04am

Sun Feb 28, 12:04am

Sat Feb 27, 11:04pm

Sat Feb 27, 10:04pm

Sat Feb 27, 9:04pm

Sat Feb 27, 8:04pm

Sat Feb 27, 7:04pm

Sat Feb 27, 6:04pm

Meta data:

ID: 3f4c9c05-1580-41a7-88a5-52cd72f6857e
Link: https://api.weather.gov/products/3f4c9c05-1580-41a7-88a5-52cd72f6857e